Centerville, IA

12:58 AM CDT on August 31, 2016 (GMT -0500)
Centerville Municipal

Weather History for KTVK - February, 2014

Change the Weather History Date:

Friday, February 14, 2014

  Actual Average Record
Temperature  
Mean Temperature 12 °F -  
Max Temperature 23 °F 37 °F 70 °F (1954)
Min Temperature 1 °F 20 °F -1 °F (1951)
Degree Days  
Heating Degree Days 53    
Moisture  
Dew Point 10 °F    
Average Humidity 81    
Maximum Humidity 100    
Minimum Humidity 68    
Precipitation  
Precipitation 0.00 in - - ()
Sea Level Pressure  
Sea Level Pressure 29.89 in    
Wind  
Wind Speed 8 mph (NNW)    
Max Wind Speed 17 mph    
Max Gust Speed 22 mph    
Visibility 8 miles    
Events Rain , Snow    
Averages and records for this station are not official NWS values.
T = Trace of Precipitation, MM = Missing Value Source: NWS Daily Summary

Daily Weather History Graph

Daily Weather History Graph

Search for Another Location

Airport or City:

Trip Planner

Search our weather history database for the weather conditions in past years. The results will help you decide how hot, cold, wet, or windy it might be!

Date:

Astronomy

Feb. 14, 2014 Rise Set
Actual Time 7:06 AM CST 5:45 PM CST
Civil Twilight 6:38 AM CST 6:13 PM CST
Nautical Twilight 6:06 AM CST 6:45 PM CST
Astronomical Twilight 5:34 AM CST 7:17 PM CST
Moon 5:50 PM CST (2/14) 6:33 AM CST (2/14)
Length of Visible Light 11h 34m
Length of Day
10h 38m
Full, 100% of the Moon is Illuminated
Feb 14
Full
Feb 14
Full
Feb 22
Last Quarter
Mar 1
New
Mar 8
First Quarter

Hourly Weather History & Observations

Time (CST) Temp. Windchill Dew Point Humidity Pressure Visibility Wind Dir Wind Speed Gust Speed Precip Events Conditions
12:15 AM 23.0 °F - 15.8 °F 74% 29.74 in 10.0 mi Calm Calm - N/A   Clear
12:35 AM 21.2 °F 16.4 °F 15.8 °F 80% 29.74 in 10.0 mi NNE 3.5 mph - N/A   Partly Cloudy
12:55 AM 21.2 °F 16.4 °F 15.8 °F 80% 29.74 in 10.0 mi North 3.5 mph - N/A   Clear
1:15 AM 19.4 °F 14.3 °F 14.0 °F 80% 29.74 in 10.0 mi NNE 3.5 mph - N/A   Clear
1:35 AM 19.4 °F 12.8 °F 14.0 °F 80% 29.73 in 10.0 mi NNE 4.6 mph - N/A   Clear
1:55 AM 19.4 °F 14.3 °F 12.2 °F 74% 29.74 in 10.0 mi NNE 3.5 mph - N/A   Partly Cloudy
2:15 AM 19.4 °F 14.3 °F 14.0 °F 80% 29.73 in 10.0 mi ENE 3.5 mph - N/A   Mostly Cloudy
2:35 AM 21.2 °F 16.4 °F 12.2 °F 68% 29.75 in 10.0 mi North 3.5 mph - N/A   Partly Cloudy
2:55 AM 21.2 °F 13.6 °F 14.0 °F 74% 29.76 in 10.0 mi NNW 5.8 mph - N/A   Partly Cloudy
3:15 AM 21.2 °F 16.4 °F 14.0 °F 74% 29.74 in 10.0 mi NNE 3.5 mph - N/A   Clear
3:35 AM 21.2 °F 12.6 °F 12.2 °F 68% 29.71 in 10.0 mi NE 6.9 mph - N/A   Partly Cloudy
3:55 AM 21.2 °F - 14.0 °F 74% 29.72 in 9.0 mi Calm Calm - N/A Snow Light Snow
4:15 AM 19.4 °F 9.5 °F 15.8 °F 86% 29.68 in 2.0 mi ENE 8.1 mph - N/A Snow Light Snow
4:35 AM 17.6 °F 8.2 °F 17.6 °F 100% 29.68 in 1.5 mi NE 6.9 mph - N/A Snow Light Snow
4:55 AM 17.6 °F 7.3 °F 17.6 °F 100% 29.69 in 8.0 mi NNE 8.1 mph - N/A Snow Light Snow
5:15 AM 17.6 °F 6.4 °F 17.6 °F 100% 29.68 in 2.0 mi NE 9.2 mph - N/A Snow Light Snow
5:35 AM 17.6 °F 7.3 °F 17.6 °F 100% 29.68 in 3.0 mi NNE 8.1 mph - N/A Snow Light Snow
5:55 AM 17.6 °F 8.2 °F 17.6 °F 100% 29.68 in 2.0 mi NNE 6.9 mph - N/A Snow Light Snow
6:15 AM 17.6 °F 9.3 °F 15.8 °F 93% 29.69 in 1.5 mi NNE 5.8 mph - N/A Snow Light Snow
6:35 AM 17.6 °F 7.3 °F 15.8 °F 93% 29.69 in 4.0 mi NE 8.1 mph - N/A Snow Light Snow
6:55 AM 17.6 °F 5.0 °F 15.8 °F 93% 29.72 in 3.0 mi North 11.5 mph - N/A Snow Light Snow
7:15 AM 15.8 °F 0.3 °F 15.8 °F 100% 29.72 in 1.8 mi North 16.1 mph - N/A Snow Light Snow
7:35 AM 15.8 °F 1.4 °F 14.0 °F 93% 29.74 in 3.0 mi North 13.8 mph 18.4 mph N/A Snow Light Snow
7:55 AM 15.8 °F 0.9 °F 14.0 °F 93% 29.77 in 3.0 mi North 15.0 mph - N/A Snow Light Snow
8:15 AM 15.8 °F 2.1 °F 14.0 °F 93% 29.79 in 3.0 mi North 12.7 mph - N/A Snow Light Snow
8:35 AM 15.8 °F 3.4 °F 14.0 °F 93% 29.82 in 2.0 mi North 10.4 mph - N/A Snow Light Snow
8:55 AM 15.8 °F 5.1 °F 14.0 °F 93% 29.83 in 8.0 mi NNW 8.1 mph - N/A Snow Light Snow
9:15 AM 15.8 °F 1.4 °F 14.0 °F 93% 29.84 in 5.0 mi NNW 13.8 mph - N/A Snow Light Snow
9:35 AM 15.8 °F 0.9 °F 12.2 °F 86% 29.83 in 10.0 mi North 15.0 mph - N/A Snow Light Snow
9:55 AM 15.8 °F 2.1 °F 12.2 °F 86% 29.84 in 10.0 mi NNW 12.7 mph - N/A Snow Light Snow
10:15 AM 15.8 °F 2.1 °F 14.0 °F 93% 29.85 in 10.0 mi NNW 12.7 mph - N/A Rain Light Freezing Rain
10:35 AM 15.8 °F 0.9 °F 12.2 °F 86% 29.87 in 10.0 mi North 15.0 mph - N/A Rain Light Freezing Rain
10:55 AM 17.6 °F 5.0 °F 12.2 °F 79% 29.87 in 10.0 mi NNW 11.5 mph - N/A Rain Light Freezing Rain
11:15 AM 17.6 °F 2.7 °F 12.2 °F 79% 29.88 in 10.0 mi NNW 16.1 mph - N/A Snow Light Snow
11:35 AM 17.6 °F 3.7 °F 12.2 °F 79% 29.89 in 10.0 mi NNW 13.8 mph - N/A Snow Light Snow
11:55 AM 17.6 °F 4.3 °F 14.0 °F 86% 29.89 in 10.0 mi NNW 12.7 mph - N/A Snow Light Snow
12:15 PM 17.6 °F 3.7 °F 12.2 °F 79% 29.90 in 10.0 mi NNW 13.8 mph 19.6 mph N/A Snow Light Snow
12:35 PM 19.4 °F 5.5 °F 12.2 °F 74% 29.90 in 10.0 mi NNW 15.0 mph - N/A Rain Light Freezing Rain
12:55 PM 19.4 °F 5.0 °F 12.2 °F 74% 29.91 in 10.0 mi NNW 16.1 mph 19.6 mph N/A Rain Light Freezing Rain
1:15 PM 19.4 °F 5.5 °F 12.2 °F 74% 29.91 in 10.0 mi NW 15.0 mph - N/A Rain Light Freezing Rain
1:35 PM 19.4 °F 5.0 °F 10.4 °F 68% 29.91 in 10.0 mi NNW 16.1 mph 21.9 mph N/A Rain Light Freezing Rain
1:55 PM 17.6 °F 2.2 °F 12.2 °F 79% 29.92 in 10.0 mi NW 17.3 mph - N/A Rain Light Freezing Rain
2:15 PM 19.4 °F 5.0 °F 10.4 °F 68% 29.92 in 10.0 mi NNW 16.1 mph - N/A Rain Light Freezing Rain
2:35 PM 19.4 °F 5.0 °F 10.4 °F 68% 29.94 in 10.0 mi WNW 16.1 mph - N/A Rain Light Freezing Rain
2:55 PM 17.6 °F 3.7 °F 10.4 °F 73% 29.95 in 10.0 mi NW 13.8 mph 20.7 mph N/A Rain Light Freezing Rain
3:15 PM 19.4 °F 5.0 °F 10.4 °F 68% 29.96 in 10.0 mi NW 16.1 mph - N/A Rain Light Freezing Rain
3:35 PM 17.6 °F 3.7 °F 10.4 °F 73% 29.96 in 10.0 mi NW 13.8 mph - N/A   Clear
3:55 PM 17.6 °F 2.7 °F 8.6 °F 68% 29.97 in 10.0 mi NNW 16.1 mph - N/A Rain Light Freezing Rain
4:15 PM 17.6 °F 2.7 °F 8.6 °F 68% 29.97 in 10.0 mi NW 16.1 mph - N/A   Clear
4:35 PM 17.6 °F 5.0 °F 8.6 °F 68% 29.98 in 10.0 mi NW 11.5 mph 17.3 mph N/A   Clear
4:55 PM 17.6 °F 4.3 °F 8.6 °F 68% 29.99 in 10.0 mi NW 12.7 mph - N/A   Clear
5:15 PM 15.8 °F 3.4 °F 8.6 °F 73% 30.00 in 10.0 mi NW 10.4 mph - N/A   Clear
5:35 PM 15.8 °F 2.7 °F 6.8 °F 68% 30.01 in 10.0 mi NW 11.5 mph - N/A   Clear
5:55 PM 14.0 °F 0.5 °F 6.8 °F 73% 30.02 in 10.0 mi NW 11.5 mph - N/A   Clear
6:15 PM 14.0 °F 1.2 °F 6.8 °F 73% 30.04 in 10.0 mi WNW 10.4 mph - N/A   Clear
6:35 PM 12.2 °F -1.0 °F 5.0 °F 73% 30.04 in 10.0 mi NW 10.4 mph - N/A   Clear
6:55 PM 10.4 °F -2.4 °F 5.0 °F 79% 30.05 in 10.0 mi NW 9.2 mph - N/A   Clear
7:15 PM 10.4 °F -0.4 °F 3.2 °F 73% 30.06 in 10.0 mi WNW 6.9 mph - N/A   Clear
7:35 PM 6.8 °F -2.0 °F 1.4 °F 79% 30.05 in 10.0 mi NW 4.6 mph - N/A   Clear
7:55 PM 6.8 °F -0.1 °F 1.4 °F 79% 30.05 in 10.0 mi WNW 3.5 mph - N/A   Clear
8:15 PM 8.6 °F 0.1 °F 3.2 °F 79% 30.06 in 10.0 mi WNW 4.6 mph - N/A   Clear
8:35 PM 6.8 °F -2.0 °F 1.4 °F 79% 30.07 in 10.0 mi WNW 4.6 mph - N/A   Clear
8:55 PM 5.0 °F -5.6 °F -0.4 °F 78% 30.07 in 10.0 mi NW 5.8 mph - N/A   Clear
9:15 PM 6.8 °F -4.8 °F 1.4 °F 79% 30.07 in 10.0 mi NW 6.9 mph - N/A   Clear
9:35 PM 6.8 °F -5.9 °F 1.4 °F 79% 30.08 in 10.0 mi NW 8.1 mph - N/A   Clear
9:55 PM 6.8 °F -6.9 °F 1.4 °F 79% 30.09 in 10.0 mi NW 9.2 mph - N/A   Clear
10:15 PM 5.0 °F -9.1 °F -0.4 °F 78% 30.10 in 10.0 mi WNW 9.2 mph - N/A   Clear
10:35 PM 5.0 °F -10.0 °F -0.4 °F 78% 30.11 in 10.0 mi WNW 10.4 mph - N/A   Clear
10:55 PM 5.0 °F -10.0 °F -0.4 °F 78% 30.10 in 10.0 mi WNW 10.4 mph - N/A   Clear
11:15 PM 1.4 °F -12.5 °F -0.4 °F 92% 30.10 in 10.0 mi NW 8.1 mph - N/A   Clear
11:35 PM 1.4 °F -13.5 °F -0.4 °F 92% 30.11 in 10.0 mi WNW 9.2 mph - N/A   Clear
11:55 PM 1.4 °F -13.5 °F -0.4 °F 92% 30.10 in 10.0 mi NW 9.2 mph - N/A   Clear